SBI7052 ULPB-UUDD

Flight info

Callsign SBI7052
Flight time 1h 16m
Altitude 35000
Route PEMEM T785 RUROS L264 UREPI P65 ROMTA
Aircraft A321/M-SDRWY/C

Departure

Time 2026-04-21 18:46
Airport Petrozavodsk Airport (ULPB)

Arrival

Time 2026-04-21 20:03
Airport Domodedovo International Airport (UUDD)
Time Latitude Longitude Altitude Speed Heading
2026-04-21 18:21 61.87795 34.15473 160 ft 0 kts 113°
2026-04-21 18:35 61.87798 34.15458 159 ft 2 kts 112°
2026-04-21 18:36 61.87807 34.15431 159 ft 2 kts 138°
2026-04-21 18:36 61.87820 34.15412 159 ft 2 kts 155°
2026-04-21 18:36 61.87834 34.15402 159 ft 2 kts 172°
2026-04-21 18:36 61.87850 34.15401 160 ft 2 kts 189°
2026-04-21 18:37 61.87862 34.15408 160 ft 1 kts 203°
2026-04-21 18:37 61.87864 34.15410 160 ft 0 kts 205°
2026-04-21 18:40 61.87859 34.15405 160 ft 1 kts 205°
2026-04-21 18:41 61.87845 34.15391 160 ft 2 kts 211°
2026-04-21 18:41 61.87838 34.15356 160 ft 3 kts 261°
2026-04-21 18:41 61.87844 34.15299 160 ft 4 kts 287°
2026-04-21 18:41 61.87856 34.15227 159 ft 5 kts 290°
2026-04-21 18:42 61.87872 34.15138 159 ft 7 kts 291°
2026-04-21 18:42 61.87887 34.15059 159 ft 3 kts 292°
2026-04-21 18:42 61.87895 34.15008 159 ft 4 kts 281°
2026-04-21 18:42 61.87889 34.14942 159 ft 5 kts 236°
2026-04-21 18:43 61.87858 34.14890 159 ft 6 kts 208°
2026-04-21 18:43 61.87814 34.14848 159 ft 7 kts 204°
2026-04-21 18:43 61.87763 34.14800 159 ft 8 kts 203°
2026-04-21 18:43 61.87703 34.14746 159 ft 9 kts 203°
2026-04-21 18:44 61.87637 34.14686 159 ft 10 kts 203°
2026-04-21 18:44 61.87580 34.14638 159 ft 7 kts 198°
2026-04-21 18:44 61.87533 34.14608 159 ft 5 kts 195°
2026-04-21 18:44 61.87515 34.14575 159 ft 2 kts 319°
2026-04-21 18:45 61.87545 34.14598 159 ft 5 kts 31°
2026-04-21 18:45 61.87561 34.14615 159 ft 0 kts 24°
2026-04-21 18:45 61.87563 34.14617 159 ft 1 kts 24°
2026-04-21 18:45 61.87667 34.14714 159 ft 42 kts 23°
2026-04-21 18:46 61.88150 34.15148 160 ft 108 kts 23°
2026-04-21 18:46 61.89018 34.15936 161 ft 162 kts 23°
2026-04-21 18:46 61.90139 34.16964 439 ft 184 kts 22°
2026-04-21 18:46 61.91341 34.18038 1023 ft 186 kts 20°
2026-04-21 18:47 61.92410 34.19373 1854 ft 179 kts 44°
2026-04-21 18:47 61.93009 34.21519 2444 ft 175 kts 74°
2026-04-21 18:47 61.92831 34.24122 2655 ft 191 kts 119°
2026-04-21 18:47 61.91791 34.25931 2890 ft 202 kts 159°
2026-04-21 18:48 61.90361 34.26405 3096 ft 216 kts 176°
2026-04-21 18:48 61.88831 34.26792 3347 ft 230 kts 170°
2026-04-21 18:48 61.87204 34.27507 3538 ft 249 kts 166°
2026-04-21 18:48 61.85486 34.28439 3907 ft 262 kts 164°
2026-04-21 18:49 61.83720 34.29478 4479 ft 266 kts 163°
2026-04-21 18:49 61.81945 34.30560 5104 ft 269 kts 163°
2026-04-21 18:49 61.80734 34.31307 5513 ft 272 kts 162°
2026-04-21 18:49 61.78329 34.32795 6322 ft 276 kts 162°
2026-04-21 18:50 61.76472 34.33948 6954 ft 280 kts 162°
2026-04-21 18:50 61.74625 34.35093 7583 ft 282 kts 162°
2026-04-21 18:50 61.72727 34.36269 8158 ft 288 kts 162°
2026-04-21 18:50 61.70781 34.37476 8588 ft 299 kts 162°
2026-04-21 18:51 61.68780 34.38715 9205 ft 303 kts 162°
2026-04-21 18:51 61.66733 34.39978 9884 ft 305 kts 162°
2026-04-21 18:51 61.64704 34.41228 10400 ft 312 kts 162°
2026-04-21 18:51 61.62568 34.42545 10682 ft 327 kts 162°
2026-04-21 18:52 61.60331 34.43921 10956 ft 342 kts 162°
2026-04-21 18:52 61.58017 34.45340 11228 ft 356 kts 162°
2026-04-21 18:52 61.55608 34.46995 11484 ft 370 kts 158°
2026-04-21 18:52 61.53194 34.49065 11753 ft 382 kts 154°
2026-04-21 18:53 61.50740 34.51311 12221 ft 388 kts 154°
2026-04-21 18:53 61.48291 34.53564 12776 ft 390 kts 153°
2026-04-21 18:53 61.45793 34.55859 13330 ft 393 kts 153°
2026-04-21 18:53 61.43277 34.58165 13857 ft 397 kts 153°
2026-04-21 18:54 61.40733 34.60489 14364 ft 401 kts 153°
2026-04-21 18:54 61.38182 34.62815 14867 ft 404 kts 153°
2026-04-21 18:54 61.35612 34.65150 15359 ft 408 kts 154°
2026-04-21 18:54 61.32999 34.67525 15838 ft 411 kts 154°
2026-04-21 18:55 61.30364 34.69927 16424 ft 411 kts 153°
2026-04-21 18:55 61.27987 34.72997 16903 ft 405 kts 134°
2026-04-21 18:55 61.26255 34.77475 17369 ft 396 kts 114°
2026-04-21 18:55 61.25214 34.82730 17869 ft 392 kts 104°
2026-04-21 18:56 61.24331 34.88015 18312 ft 395 kts 103°
2026-04-21 18:56 61.23433 34.93413 18761 ft 397 kts 103°
2026-04-21 18:56 61.22515 34.98854 19190 ft 400 kts 104°
2026-04-21 18:56 61.21585 35.04288 19536 ft 405 kts 104°
2026-04-21 18:57 61.20634 35.09792 19957 ft 408 kts 104°
2026-04-21 18:57 61.19671 35.15312 20385 ft 410 kts 104°
2026-04-21 18:57 61.18699 35.20846 20782 ft 412 kts 104°
2026-04-21 18:57 61.17712 35.26451 21183 ft 414 kts 104°
2026-04-21 18:58 61.16719 35.32065 21567 ft 417 kts 104°
2026-04-21 18:58 61.15730 35.37650 21946 ft 419 kts 104°
2026-04-21 18:58 61.14725 35.43301 22332 ft 420 kts 104°
2026-04-21 18:58 61.13711 35.48978 22706 ft 422 kts 103°
2026-04-21 18:59 61.12686 35.54711 23068 ft 424 kts 103°
2026-04-21 18:59 61.11666 35.60388 23404 ft 426 kts 103°
2026-04-21 18:59 61.10630 35.66138 23732 ft 428 kts 104°
2026-04-21 18:59 61.09592 35.71895 24082 ft 429 kts 104°
2026-04-21 19:00 61.08566 35.77596 24479 ft 429 kts 104°
2026-04-21 19:00 61.07526 35.83379 24828 ft 430 kts 104°
2026-04-21 19:00 61.06486 35.89154 25146 ft 432 kts 104°
2026-04-21 19:00 61.05433 35.94977 25470 ft 433 kts 104°
2026-04-21 19:01 61.04378 36.00787 25805 ft 434 kts 104°
2026-04-21 19:01 61.03321 36.06589 26115 ft 435 kts 104°
2026-04-21 19:01 61.02249 36.12453 26395 ft 437 kts 104°
2026-04-21 19:01 61.01186 36.18248 26695 ft 438 kts 103°
2026-04-21 19:02 61.00095 36.24170 26988 ft 440 kts 104°
2026-04-21 19:02 60.98936 36.29994 27242 ft 447 kts 110°
2026-04-21 19:02 60.97149 36.35366 27486 ft 463 kts 124°
2026-04-21 19:02 60.94711 36.39725 27807 ft 476 kts 140°
2026-04-21 19:03 60.91798 36.43013 28222 ft 479 kts 147°
2026-04-21 19:03 60.88810 36.46027 28635 ft 478 kts 147°
2026-04-21 19:03 60.85838 36.48960 28988 ft 476 kts 147°
2026-04-21 19:03 60.82826 36.51946 29299 ft 475 kts 147°
2026-04-21 19:04 60.79874 36.54895 29587 ft 475 kts 147°
2026-04-21 19:04 60.76925 36.57860 29885 ft 474 kts 146°
2026-04-21 19:04 60.73985 36.60825 30184 ft 473 kts 146°
2026-04-21 19:04 60.71033 36.63802 30487 ft 472 kts 146°
2026-04-21 19:05 60.68089 36.66777 30761 ft 471 kts 147°
2026-04-21 19:05 60.65184 36.69719 31030 ft 471 kts 147°
2026-04-21 19:05 60.62240 36.72696 31251 ft 471 kts 147°
2026-04-21 19:05 60.59298 36.75666 31490 ft 471 kts 147°
2026-04-21 19:06 60.56414 36.78563 31734 ft 470 kts 147°
2026-04-21 19:06 60.53476 36.81508 31965 ft 470 kts 147°
2026-04-21 19:06 60.50568 36.84412 32199 ft 469 kts 147°
2026-04-21 19:06 60.47631 36.87339 32401 ft 469 kts 147°
2026-04-21 19:07 60.44722 36.90232 32572 ft 469 kts 148°
2026-04-21 19:07 60.41821 36.93109 32749 ft 468 kts 148°
2026-04-21 19:07 60.38889 36.96012 32922 ft 467 kts 148°
2026-04-21 19:07 60.35966 36.98901 33095 ft 467 kts 148°
2026-04-21 19:08 60.33074 37.01752 33256 ft 467 kts 148°
2026-04-21 19:08 60.30156 37.04623 33390 ft 468 kts 148°
2026-04-21 19:08 60.27232 37.07494 33491 ft 469 kts 148°
2026-04-21 19:08 60.24307 37.10364 33606 ft 470 kts 148°
2026-04-21 19:09 60.21392 37.13215 33760 ft 470 kts 148°
2026-04-21 19:09 60.18445 37.16092 33891 ft 470 kts 148°
2026-04-21 19:09 60.15532 37.18930 34032 ft 470 kts 149°
2026-04-21 19:09 60.12575 37.21805 34188 ft 470 kts 149°
2026-04-21 19:10 60.09683 37.24611 34330 ft 470 kts 149°
2026-04-21 19:10 60.06728 37.27472 34464 ft 471 kts 149°
2026-04-21 19:10 60.03773 37.30327 34566 ft 471 kts 149°
2026-04-21 19:10 60.00858 37.33139 34678 ft 472 kts 149°
2026-04-21 19:11 59.97895 37.35990 34780 ft 472 kts 149°
2026-04-21 19:11 59.91976 37.41671 34870 ft 474 kts 149°
2026-04-21 19:12 59.86034 37.47336 34857 ft 475 kts 149°
2026-04-21 19:12 59.80113 37.52950 34850 ft 473 kts 149°
2026-04-21 19:13 59.74175 37.58586 34860 ft 474 kts 149°
2026-04-21 19:13 59.68251 37.64188 34862 ft 474 kts 149°
2026-04-21 19:14 59.62329 37.69765 34869 ft 474 kts 150°
2026-04-21 19:14 59.56363 37.75363 34859 ft 474 kts 151°
2026-04-21 19:15 59.50424 37.80907 34864 ft 474 kts 151°
2026-04-21 19:15 59.44482 37.86430 34869 ft 474 kts 151°
2026-04-21 19:16 59.38531 37.91941 34872 ft 474 kts 151°
2026-04-21 19:16 59.32432 37.96952 34875 ft 478 kts 158°
2026-04-21 19:17 59.22639 38.00526 34883 ft 485 kts 175°
2026-04-21 19:17 59.15908 38.00096 34882 ft 486 kts 183°
2026-04-21 19:18 59.09185 37.98936 34885 ft 486 kts 183°
2026-04-21 19:18 59.02464 37.97818 34877 ft 487 kts 183°
2026-04-21 19:19 58.95774 37.96744 34875 ft 486 kts 183°
2026-04-21 19:19 58.89050 37.95679 34869 ft 485 kts 183°
2026-04-21 19:20 58.82322 37.94617 34877 ft 485 kts 183°
2026-04-21 19:20 58.75610 37.93549 34872 ft 485 kts 183°
2026-04-21 19:21 58.68937 37.92493 34882 ft 485 kts 183°
2026-04-21 19:21 58.62219 37.91520 34880 ft 484 kts 182°
2026-04-21 19:22 58.55513 37.90618 34883 ft 484 kts 182°
2026-04-21 19:22 58.48839 37.89723 34878 ft 483 kts 182°
2026-04-21 19:23 58.42145 37.88825 34877 ft 483 kts 182°
2026-04-21 19:23 58.35481 37.87929 34879 ft 482 kts 182°
2026-04-21 19:24 58.28836 37.87040 34874 ft 482 kts 182°
2026-04-21 19:24 58.22155 37.86149 34870 ft 482 kts 182°
2026-04-21 19:25 58.15479 37.85262 34874 ft 482 kts 182°
2026-04-21 19:25 58.08828 37.84384 34866 ft 481 kts 182°
2026-04-21 19:26 58.02146 37.83505 34855 ft 480 kts 182°
2026-04-21 19:26 57.95527 37.82637 34864 ft 480 kts 182°
2026-04-21 19:27 57.88871 37.81770 34862 ft 480 kts 182°
2026-04-21 19:27 57.82211 37.80905 34871 ft 480 kts 183°
2026-04-21 19:28 57.75540 37.79960 34874 ft 479 kts 183°
2026-04-21 19:28 57.68901 37.78999 34882 ft 479 kts 183°
2026-04-21 19:29 57.62313 37.78061 34878 ft 478 kts 183°
2026-04-21 19:29 57.55671 37.77124 34882 ft 478 kts 183°
2026-04-21 19:30 57.49065 37.76196 34609 ft 481 kts 184°
2026-04-21 19:30 57.45739 37.75732 33998 ft 481 kts 183°
2026-04-21 19:30 57.42445 37.75291 33212 ft 481 kts 183°
2026-04-21 19:31 57.39126 37.74861 32292 ft 482 kts 183°
2026-04-21 19:31 57.35810 37.74435 31656 ft 477 kts 184°
2026-04-21 19:31 57.32554 37.74017 30955 ft 474 kts 184°
2026-04-21 19:31 57.29293 37.73598 30141 ft 474 kts 184°
2026-04-21 19:32 57.26017 37.73175 29345 ft 474 kts 184°
2026-04-21 19:32 57.22702 37.72749 28572 ft 474 kts 184°
2026-04-21 19:32 57.19451 37.72332 28048 ft 473 kts 184°
2026-04-21 19:32 57.16157 37.71909 27973 ft 475 kts 184°
2026-04-21 19:33 57.12882 37.71489 27842 ft 464 kts 184°
2026-04-21 19:33 57.09726 37.71098 27802 ft 448 kts 183°
2026-04-21 19:33 57.06701 37.70802 27824 ft 432 kts 182°
2026-04-21 19:33 57.03709 37.70546 27855 ft 429 kts 182°
2026-04-21 19:34 57.00735 37.70295 27876 ft 429 kts 182°
2026-04-21 19:34 56.97765 37.70038 27883 ft 428 kts 182°
2026-04-21 19:34 56.94775 37.69772 27881 ft 428 kts 183°
2026-04-21 19:34 56.91820 37.69508 27880 ft 428 kts 183°
2026-04-21 19:35 56.88842 37.69240 27879 ft 427 kts 183°
2026-04-21 19:35 56.82889 37.68708 27867 ft 427 kts 183°
2026-04-21 19:35 56.79913 37.68444 27861 ft 427 kts 183°
2026-04-21 19:36 56.76911 37.68179 27839 ft 427 kts 183°
2026-04-21 19:36 56.73945 37.67916 27668 ft 429 kts 183°
2026-04-21 19:36 56.70971 37.67654 27160 ft 428 kts 183°
2026-04-21 19:36 56.67981 37.67342 26704 ft 424 kts 184°
2026-04-21 19:37 56.65094 37.67008 26275 ft 421 kts 184°
2026-04-21 19:37 56.62184 37.66669 25848 ft 417 kts 184°
2026-04-21 19:37 56.59294 37.66338 25429 ft 413 kts 184°
2026-04-21 19:37 56.56470 37.66026 25009 ft 409 kts 184°
2026-04-21 19:38 56.53627 37.65753 24589 ft 406 kts 183°
2026-04-21 19:38 56.50835 37.65498 24164 ft 403 kts 183°
2026-04-21 19:38 56.48072 37.65250 23749 ft 399 kts 183°
2026-04-21 19:38 56.45315 37.65000 23332 ft 396 kts 183°
2026-04-21 19:39 56.42571 37.64749 22921 ft 393 kts 183°
2026-04-21 19:39 56.39854 37.64502 22517 ft 390 kts 183°
2026-04-21 19:39 56.37165 37.64255 22114 ft 388 kts 183°
2026-04-21 19:39 56.34489 37.64010 21711 ft 385 kts 183°
2026-04-21 19:40 56.31834 37.63766 21308 ft 382 kts 183°
2026-04-21 19:40 56.29184 37.63524 20905 ft 380 kts 183°
2026-04-21 19:40 56.26567 37.63285 20507 ft 377 kts 182°
2026-04-21 19:40 56.23943 37.63048 20112 ft 375 kts 183°
2026-04-21 19:41 56.21373 37.62815 19714 ft 372 kts 183°
2026-04-21 19:41 56.18800 37.62581 19326 ft 370 kts 183°
2026-04-21 19:41 56.16226 37.62347 18935 ft 367 kts 182°
2026-04-21 19:41 56.13678 37.62351 18773 ft 368 kts 174°
2026-04-21 19:42 56.11170 37.63240 18764 ft 368 kts 161°
2026-04-21 19:42 56.08791 37.64923 18734 ft 367 kts 154°
2026-04-21 19:42 56.06473 37.66820 18368 ft 367 kts 153°
2026-04-21 19:42 56.04157 37.68739 18003 ft 365 kts 153°
2026-04-21 19:43 56.01869 37.70602 17756 ft 358 kts 153°
2026-04-21 19:43 55.99619 37.72411 17364 ft 357 kts 154°
2026-04-21 19:43 55.97357 37.74216 16984 ft 354 kts 154°
2026-04-21 19:43 55.95171 37.76054 16878 ft 344 kts 150°
2026-04-21 19:44 55.93111 37.78146 16915 ft 338 kts 145°
2026-04-21 19:44 55.91185 37.80480 16911 ft 334 kts 141°
2026-04-21 19:44 55.89323 37.82854 16897 ft 332 kts 141°
2026-04-21 19:44 55.87429 37.85114 16882 ft 332 kts 150°
2026-04-21 19:45 55.85272 37.86472 16853 ft 334 kts 168°
2026-04-21 19:45 55.83017 37.86774 16879 ft 336 kts 178°
2026-04-21 19:45 55.80713 37.86770 16893 ft 337 kts 180°
2026-04-21 19:45 55.78376 37.86726 16875 ft 337 kts 180°
2026-04-21 19:46 55.76038 37.86704 16867 ft 337 kts 179°
2026-04-21 19:46 55.73693 37.86710 16876 ft 337 kts 179°
2026-04-21 19:46 55.71329 37.86736 16560 ft 340 kts 178°
2026-04-21 19:46 55.68966 37.86769 16158 ft 339 kts 178°
2026-04-21 19:47 55.66618 37.86805 15765 ft 336 kts 178°
2026-04-21 19:47 55.64295 37.86843 15421 ft 334 kts 178°
2026-04-21 19:47 55.62011 37.86897 15081 ft 331 kts 178°
2026-04-21 19:47 55.59716 37.86956 14733 ft 329 kts 178°
2026-04-21 19:48 55.57437 37.87015 14387 ft 327 kts 177°
2026-04-21 19:48 55.55198 37.87528 14008 ft 322 kts 160°
2026-04-21 19:48 55.53218 37.89249 13659 ft 313 kts 141°
2026-04-21 19:48 55.51494 37.91509 13323 ft 310 kts 138°
2026-04-21 19:49 55.49803 37.93835 12984 ft 308 kts 138°
2026-04-21 19:49 55.48116 37.96115 12809 ft 304 kts 139°
2026-04-21 19:49 55.46423 37.98337 12816 ft 306 kts 139°
2026-04-21 19:49 55.44712 38.00562 12557 ft 308 kts 139°
2026-04-21 19:50 55.42980 38.02803 12197 ft 307 kts 140°
2026-04-21 19:50 55.41267 38.05014 11849 ft 305 kts 140°
2026-04-21 19:50 55.39563 38.07211 11507 ft 304 kts 140°
2026-04-21 19:50 55.37868 38.09394 11173 ft 302 kts 139°
2026-04-21 19:51 55.36179 38.11567 10841 ft 300 kts 139°
2026-04-21 19:51 55.34492 38.13736 10511 ft 298 kts 139°
2026-04-21 19:51 55.32833 38.15866 10189 ft 296 kts 139°
2026-04-21 19:51 55.31173 38.17995 9864 ft 295 kts 139°
2026-04-21 19:52 55.29523 38.20111 9544 ft 293 kts 139°
2026-04-21 19:52 55.27893 38.22198 9230 ft 292 kts 139°
2026-04-21 19:52 55.26248 38.24301 8897 ft 291 kts 139°
2026-04-21 19:52 55.24604 38.26354 8553 ft 290 kts 141°
2026-04-21 19:53 55.22945 38.28350 8232 ft 288 kts 141°
2026-04-21 19:53 55.21290 38.30328 7954 ft 285 kts 141°
2026-04-21 19:53 55.19646 38.32170 7885 ft 276 kts 150°
2026-04-21 19:53 55.17807 38.32782 7691 ft 277 kts 184°
2026-04-21 19:54 55.15930 38.31941 7298 ft 281 kts 199°
2026-04-21 19:54 55.14113 38.30682 6977 ft 279 kts 201°
2026-04-21 19:54 55.12321 38.29432 6722 ft 276 kts 204°
2026-04-21 19:54 55.10807 38.27479 6380 ft 273 kts 236°
2026-04-21 19:55 55.10190 38.24493 6057 ft 260 kts 274°
2026-04-21 19:55 55.10543 38.21456 5696 ft 254 kts 293°
2026-04-21 19:55 55.11133 38.18587 5421 ft 251 kts 294°
2026-04-21 19:55 55.11695 38.15707 5170 ft 248 kts 292°
2026-04-21 19:56 55.12429 38.13052 4775 ft 243 kts 317°
2026-04-21 19:56 55.13858 38.11650 4436 ft 232 kts 352°
2026-04-21 19:56 55.15437 38.11287 4162 ft 229 kts 354°
2026-04-21 19:56 55.17016 38.10897 3889 ft 227 kts 353°
2026-04-21 19:57 55.18539 38.10466 3803 ft 219 kts 352°
2026-04-21 19:57 55.20014 38.10022 3677 ft 212 kts 352°
2026-04-21 19:57 55.21452 38.09576 3529 ft 206 kts 352°
2026-04-21 19:57 55.22821 38.09101 3461 ft 194 kts 349°
2026-04-21 19:58 55.24090 38.08344 3098 ft 197 kts 339°
2026-04-21 19:58 55.25269 38.07256 2981 ft 184 kts 333°
2026-04-21 19:58 55.26322 38.06137 2980 ft 164 kts 331°
2026-04-21 19:58 55.27220 38.05115 2964 ft 150 kts 330°
2026-04-21 19:59 55.28095 38.04091 2984 ft 150 kts 330°
2026-04-21 19:59 55.28946 38.03077 2977 ft 148 kts 329°
2026-04-21 19:59 55.29800 38.02049 2920 ft 149 kts 329°
2026-04-21 19:59 55.30641 38.01032 2734 ft 148 kts 328°
2026-04-21 20:00 55.31486 38.00010 2528 ft 147 kts 328°
2026-04-21 20:00 55.32325 37.98994 2326 ft 147 kts 328°
2026-04-21 20:00 55.33171 37.97972 2124 ft 146 kts 328°
2026-04-21 20:00 55.34014 37.96954 1920 ft 146 kts 328°
2026-04-21 20:01 55.34840 37.95958 1718 ft 145 kts 327°
2026-04-21 20:01 55.35674 37.94953 1515 ft 145 kts 327°
2026-04-21 20:01 55.36505 37.93952 1313 ft 144 kts 327°
2026-04-21 20:01 55.37338 37.92950 1113 ft 144 kts 326°
2026-04-21 20:02 55.38153 37.91968 915 ft 143 kts 326°
2026-04-21 20:02 55.38976 37.90978 712 ft 141 kts 326°
2026-04-21 20:02 55.39778 37.90013 538 ft 136 kts 326°
2026-04-21 20:02 55.40367 37.89304 553 ft 58 kts 324°
2026-04-21 20:03 55.40557 37.89075 562 ft 14 kts 326°
2026-04-21 20:03 55.40632 37.88985 564 ft 12 kts 326°
2026-04-21 20:03 55.40698 37.88905 566 ft 10 kts 326°
2026-04-21 20:03 55.40760 37.88840 567 ft 9 kts 333°
2026-04-21 20:04 55.40823 37.88796 568 ft 9 kts 344°
2026-04-21 20:04 55.40892 37.88770 568 ft 10 kts 350°
2026-04-21 20:04 55.40948 37.88755 569 ft 7 kts 351°
2026-04-21 20:04 55.41000 37.88747 569 ft 7 kts
2026-04-21 20:05 55.41040 37.88786 570 ft 6 kts 64°
2026-04-21 20:05 55.41029 37.88859 570 ft 7 kts 128°
2026-04-21 20:05 55.40988 37.88930 569 ft 9 kts 139°
2026-04-21 20:05 55.40931 37.89010 568 ft 11 kts 143°
2026-04-21 20:06 55.40873 37.89073 567 ft 9 kts 150°
2026-04-21 20:06 55.40823 37.89129 566 ft 1 kts 142°